TIANMU-1 05

Last updated on Mon Jun 22 2026 00:02:46 GMT+0000 (Coordinated Universal Time)

1 55975U 23039C 26172.49333985 .00012617 00000+0 24893-3 0 9995 2 55975 97.5221 346.2447 0004106 104.9703 255.2001 15.47316256181481
UTC large
Height (km)
Speed (km/s)
/
Latitude / Longitude
Inclination (degrees)
Orbital Period (minutes)
Azimuth
Elevation
Range (km)
Doppler Factor

Next 0 passes for location: London (51.5072 / 0.1276)

No passes found over London.
TIANMU-1 05